Lid_Strength_Index
5 5 5 5 5 5 5 6 6 6 6 5 4 4 4 3 5 4 3 3 1 -1 -1 -1 -1 -1 -1 -1 -1 -1 -1 -1 -2 -2 -2 -1 -2 -2 -2 -2 -2 -2 -2
5 5 5 5 5 5 5 6 6 6 6 6 5 4 3 4 5 5 4 2 3 -0 -0 -1 -1 -1 -1 -1 -1 -1 -1 -1 -1 -2 -1 -1 -1 -1 -2 -2 -2 -2 -2
5 5 5 5 5 5 5 6 6 6 6 6 6 4 4 4 4 6 5 4 3 1 0 -0 -1 -1 -1 -1 -1 -1 -1 -1 -1 -1 -1 -1 -1 -1 -2 -2 -2 -2 -2
5 5 5 4 3 4 4 4 4 6 6 7 5 4 5 4 4 4 5 5 3 1 0 0 0 -0 -1 -1 -1 -1 -1 -1 -1 -1 -1 -1 -1 -1 -2 -2 -2 -2 -2
4 4 4 4 3 2 1 2 2 3 5 5 7 6 6 5 4 4 5 6 4 3 -1 0 1 0 0 -0 -1 -1 -2 -1 -1 -1 -1 -1 -1 -1 -1 -2 -2 -2 -2
4 4 4 3 2 2 3 2 2 3 4 5 8 8 6 5 4 3 4 5 4 3 -1 -0 -0 -0 1 0 -0 -1 -2 -2 -2 -2 -1 -1 -1 -1 -1 -2 -2 -2 -2
4 4 3 2 2 3 2 2 3 3 4 5 8 8 6 3 3 3 3 5 5 2 1 -0 -0 -1 -0 0 -0 -1 -1 -2 -2 -2 -1 -1 -1 -1 -1 -1 -2 -2 -2
4 4 3 2 3 3 3 3 3 4 5 5 7 8 9 5 5 4 2 5 4 3 2 0 -0 -0 -0 -1 -0 -0 -1 -1 -1 -1 -1 -1 -1 -1 -1 -1 -2 -2 -2
3 3 2 3 4 3 3 3 4 5 6 5 6 8 10 12 10 5 5 4 4 4 3 5 0 -0 -0 -1 -0 0 1 1 -0 -1 -1 -1 -1 -1 -1 -1 -2 -2 -2
3 3 3 4 4 4 4 4 5 5 5 7 7 6 7 8 11 11 8 7 5 4 3 4 1 -0 -0 -0 -0 1 3 3 1 -0 -1 -1 -1 -1 -1 -1 -2 -2 -2
3 3 4 4 4 4 4 5 5 5 4 6 7 8 7 8 8 10 12 12 9 6 3 3 2 0 -0 -1 -1 1 4 5 3 1 -0 -1 -1 -1 -1 -1 -2 -2 -2
4 3 5 5 5 5 4 4 4 5 5 5 6 7 8 9 10 10 12 13 12 8 6 4 1 0 0 -0 -0 2 4 6 4 2 1 0 -0 -1 -1 -1 -2 -2 -2
5 5 5 5 5 5 4 4 5 5 5 5 6 7 7 8 8 10 11 14 13 10 6 3 1 0 0 -0 -0 3 5 6 5 3 2 1 0 0 -0 -1 -1 -2 -2
5 5 6 5 5 5 4 4 5 5 5 6 6 6 7 7 7 9 12 15 15 10 6 6 2 1 1 1 1 5 2 6 6 5 4 3 2 1 1 1 -0 -1 -1
5 5 6 6 5 5 5 5 5 5 6 6 7 7 7 7 8 8 11 13 15 15 11 8 9 7 4 1 2 -0 0 6 6 6 5 4 4 3 2 2 2 1 0
5 6 7 6 6 5 5 5 6 6 6 7 7 7 7 7 8 8 9 10 13 14 14 10 10 9 7 4 4 3 -0 5 7 7 7 6 5 4 4 3 3 2 2
5 7 7 7 6 6 6 6 7 7 7 8 7 8 8 8 9 9 10 12 13 14 14 11 10 10 7 6 6 4 2 2 4 8 8 7 7 7 6 5 5 4 3
5 7 7 7 7 7 7 7 8 8 8 9 9 8 9 9 10 9 11 12 13 14 13 14 11 10 8 7 6 6 3 -0 1 7 7 8 8 8 8 7 7 6 6
6 7 8 7 7 7 8 8 8 8 8 9 9 9 9 10 10 10 12 13 13 12 12 12 12 10 9 8 7 6 5 0 -0 6 9 9 8 8 8 8 8 7 7
7 6 8 8 7 8 8 8 8 8 9 9 9 9 9 10 11 11 11 13 13 13 12 12 12 11 9 9 8 10 7 1 1 2 5 6 8 8 9 9 9 8 8
7 6 7 8 8 8 8 8 9 9 9 10 10 10 9 10 10 11 11 12 14 14 15 14 14 13 13 13 13 12 10 8 1 2 4 4 5 5 6 9 7 8 9
8 7 6 7 8 9 9 9 8 9 9 10 10 10 10 10 11 10 10 11 12 14 15 15 14 15 14 14 14 13 12 10 5 1 2 2 2 4 4 4 7 9 10
8 8 7 7 7 9 9 9 9 8 9 10 10 11 11 11 11 10 10 10 11 12 16 15 15 16 15 15 15 14 13 12 9 4 2 3 1 1 1 2 8 9 10
9 9 8 8 7 9 10 10 9 7 8 9 10 11 11 11 12 11 10 12 11 12 14 15 15 15 15 15 15 14 13 12 10 7 4 4 2 2 0 -0 8 9 10
9 9 9 9 9 8 10 10 8 7 8 9 9 10 11 11 11 11 11 11 13 12 11 13 14 15 15 15 15 14 15 13 9 9 13 9 7 7 6 1 1 9 10
10 9 9 9 9 9 10 10 10 9 8 9 10 10 11 11 12 11 12 12 13 13 12 13 15 15 14 15 15 14 14 15 14 13 14 14 10 8 9 5 3 3 5